This demonstration page uses our WeatherBlox Daily Observations layout. Learn more.

38.89511, -77.03637

Hourly Observations for June 1, 2015

Temp ( °F °C ) Dew Point ( °F °C ) Humidity (%) Winds ( mph kmh ) Pressure ( in mb ) Visibility ( mi km ) Precip ( " mm )
12:52 am 00:52 Mostly Cloudy 79 26 68 20 70 70 S 13 20 30 1016 10 16.09344 0 0
1:52 am 01:52 Cloudy with Light Rain 79 26 70 21 74 74 SSW 12 19 30 1016 10 16.09344 0.001 0.001
2:52 am 02:52 Mostly Cloudy 75 24 68 20 78 78 S 12 19 30 1016 10 16.09344 0.01 0.254
3:52 am 03:52 Cloudy 75 24 68 20 78 78 S 9 15 30 1016 10 16.09344 0 0
4:52 am 04:52 Cloudy with Light Rain 75 24 68 20 78 78 SSW 8 13 30 1016 10 16.09344 0.001 0.001
5:52 am 05:52 Mostly Cloudy 75 24 68 20 78 78 WSW 3 6 30 1016 10 16.09344 0.001 0.001
6:52 am 06:52 Mostly Cloudy 75 24 70 21 83 83 WSW 5 7 30.03 1017 10 16.09344 0 0
7:52 am 07:52 Mostly Cloudy 77 25 68 20 74 74 SSW 6 9 30.03 1017 10 16.09344 0 0
8:52 am 08:52 Mostly Cloudy 79 26 68 20 70 70 SW 8 13 30.03 1017 10 16.09344 0 0
9:52 am 09:52 Mostly Cloudy 82 28 70 21 66 66 S 7 11 30.03 1017 10 16.09344 0 0
10:52 am 10:52 Cloudy 82 28 70 21 66 66 S 8 13 30.03 1017 10 16.09344 0 0
11:52 am 11:52 Cloudy 84 29 70 21 62 62 S 9 15 30.03 1017 10 16.09344 0 0
12:52 pm 12:52 Cloudy 88 31 70 21 55 55 S 10 17 30 1016 10 16.09344 0 0
1:52 pm 13:52 Mostly Cloudy 90 32 66 19 46 46 S 13 20 29.97 1015 10 16.09344 0 0
2:52 pm 14:52 Partly Cloudy 91 33 66 19 44 44 S 9 15 29.97 1015 10 16.09344 0 0
3:52 pm 15:52 Mostly Cloudy 91 33 66 19 44 44 SSE 12 19 29.94 1014 10 16.09344 0 0
4:01 pm 16:01 Mostly Cloudy with Thunderstorms 91 33 66 19 44 44 S 13 20 29.94 1014 10 16.09344 0 0
4:20 pm 16:20 Mostly Cloudy with Light Thunderstorms 82 28 66 19 58 58 NNW 17 28 29.94 1014 10 16.09344 0 0
4:25 pm 16:25 Mostly Cloudy with Heavy Thunderstorms 79 26 70 21 74 74 N 7 11 29.94 1014 3 4.828032 0.01 0.254
4:32 pm 16:32 Mostly Cloudy with Light Thunderstorms 81 27 70 21 70 70 ESE 7 11 29.94 1014 7 11.265408 0 0
4:52 pm 16:52 Mostly Cloudy with Thunderstorms 81 27 72 22 74 74 NNE 6 9 29.94 1014 10 16.09344 0.05 1.27
4:59 pm 16:59 Mostly Cloudy 82 28 70 21 66 66 N 3 6 29.94 1014 10 16.09344 0 0
5:23 pm 17:23 Mostly Cloudy with Light Rain 82 28 70 21 66 66 W 6 9 29.91 1013 10 16.09344 0.001 0.001
5:26 pm 17:26 Mostly Cloudy with Light Rain 82 28 70 21 66 66 W 10 17 29.94 1014 4 6.437376 0 0
5:29 pm 17:29 Partly Cloudy with Heavy Rain 81 27 70 21 70 70 W 7 11 29.94 1014 1.75 2.816352 0.02 0.508
5:34 pm 17:34 Mostly Cloudy with Heavy Thunderstorms 79 26 68 20 70 70 SSW 20 31 29.94 1014 1 1.609344 0.09 2.286
5:37 pm 17:37 Mostly Cloudy with Heavy Thunderstorms 79 26 66 19 65 65 SSW 23 37 29.94 1014 0.75 1.207008 0.16 4.064
5:42 pm 17:42 Mostly Cloudy with Heavy Thunderstorms 79 26 63 17 58 58 ENE 15 24 29.91 1013 7 11.265408 0 0
5:47 pm 17:47 Mostly Cloudy with Light Thunderstorms 82 28 64 18 55 55 E 8 13 29.91 1013 8 12.874752 0.48 12.192
5:52 pm 17:52 Mostly Cloudy with Light Thunderstorms 82 28 66 19 58 58 ENE 12 19 29.94 1014 8 12.874752 0.48 12.192
5:57 pm 17:57 Mostly Cloudy 82 28 66 19 58 58 E 7 11 29.94 1014 10 16.09344 0 0
6:14 pm 18:14 Mostly Cloudy with Thunderstorms 81 27 72 22 74 74 ESE 3 6 29.94 1014 10 16.09344 0 0
6:26 pm 18:26 Mostly Cloudy with Light Thunderstorms 81 27 72 22 74 74 SW 17 28 29.94 1014 2.5 4.02336 0.001 0.001
6:28 pm 18:28 Windy with Storms Likely 79 26 72 22 79 79 SW 30 48 29.94 1014 0.75 1.207008 0 0
6:31 pm 18:31 Mostly Cloudy with Heavy Thunderstorms 75 24 70 21 83 83 SW 24 39 29.97 1015 0.5 0.804672 0.17 4.318
6:37 pm 18:37 Mostly Cloudy with Heavy Thunderstorms 73 23 66 19 78 78 SSW 22 35 29.97 1015 0.25 0.402336 0.48 12.192
6:43 pm 18:43 Cloudy with Heavy Thunderstorms 73 23 66 19 78 78 S 29 46 29.97 1015 0.25 0.402336 0.79 20.066
6:45 pm 18:45 Cloudy with Heavy Thunderstorms 72 22 66 19 83 83 S 22 35 29.97 1015 0.25 0.402336 0.87 22.098
6:50 pm 18:50 Cloudy with Heavy Thunderstorms 75 24 66 19 74 74 ENE 16 26 29.94 1014 0.25 0.402336 0 0
6:52 pm 18:52 Cloudy with Heavy Thunderstorms 73 23 66 19 78 78 NE 13 20 29.94 1014 0.25 0.402336 1.42 36.068
6:55 pm 18:55 Cloudy with Light Thunderstorms 73 23 66 19 78 78 NNE 10 17 29.97 1015 5 8.04672 0.09 2.286
6:59 pm 18:59 Mostly Cloudy with Light Thunderstorms 73 23 66 19 78 78 NNE 8 13 29.97 1015 8 12.874752 0.09 2.286
7:07 pm 19:07 Mostly Cloudy 75 24 68 20 78 78 E 7 11 29.97 1015 10 16.09344 0.09 2.286
7:13 pm 19:13 Cloudy 73 23 66 19 78 78 ESE 6 9 29.97 1015 10 16.09344 0.09 2.286
7:52 pm 19:52 Mostly Cloudy 84 29 70 21 62 62 S 12 19 29.97 1015 10 16.09344 0 0
8:32 pm 20:32 Mostly Cloudy 75 24 68 20 78 78 NW 16 26 30 1016 10 16.09344 0 0
8:44 pm 20:44 Mostly Cloudy with Light Rain 73 23 66 19 78 78 NNW 13 20 30 1016 8 12.874752 0 0
8:52 pm 20:52 Mostly Cloudy with Light Thunderstorms 72 22 66 19 83 83 NNW 16 26 30 1016 5 8.04672 0.02 0.508
8:59 pm 20:59 Cloudy with Heavy Thunderstorms 72 22 66 19 83 83 N 12 19 30 1016 3 4.828032 0.06 1.524
9:01 pm 21:01 Cloudy with Heavy Thunderstorms 72 22 66 19 83 83 N 8 13 30 1016 2.5 4.02336 0.07 1.778
9:05 pm 21:05 Cloudy with Heavy Thunderstorms 72 22 66 19 83 83 N 9 15 30 1016 3 4.828032 0.1 2.54
9:12 pm 21:12 Cloudy with Light Rain 72 22 68 20 88 88 N 12 19 30 1016 7 11.265408 0 0
9:31 pm 21:31 Mostly Cloudy 73 23 68 20 83 83 NE 8 13 30 1016 10 16.09344 0.11 2.794
9:52 pm 21:52 Mostly Cloudy 72 22 68 20 88 88 E 5 7 30 1016 10 16.09344 0.11 2.794
10:52 pm 22:52 Cloudy with Light Rain 73 23 66 19 78 78 Calm 30.03 1017 10 16.09344 0.001 0.001
10:57 pm 22:57 Cloudy with Rain 73 23 66 19 78 78 S 5 7 30.03 1017 3 4.828032 0.01 0.254
11:52 pm 23:52 Cloudy with Light Rain 72 22 68 20 88 88 ESE 8 13 30.03 1017 7 11.265408 0.26 6.604

Powered by AerisWeather